Weather in Polokwane

South Africa     23°54′00″S   29°27′09″E
temp.,
°C
wind,
m/s
gust,
m/s
humid.,
%
clouds,
%
prec.,
mm/h
press.,
hPa
HPBL,
m
18 april, sun
sun1823:00+10n22820 0.0 102730
02:00+8nne11900 0.0 102610
05:00+8nw11920 0.0 102610
08:00+12w11722 0.0 1027201
11:00+20se33410 0.0 10241370
14:00+23sse43261 0.0 10202084
17:00+22se43280 0.0 1020850
20:00+14nne34600 0.0 102456
19 april, mon
mon1923:00+12nne23720 0.0 102427
02:00+10n11800 0.0 102411
05:00+9wnw11820 0.0 102310
08:00+15sw12560 0.0 1023197
11:00+22s44310 0.0 10211330
14:00+25sse54200 0.0 10172400
17:00+24se34190 0.0 1017164
20:00+15ne22480 0.0 102114
20 april, tue
tue2023:00+13nnw22600 0.0 102211
02:00+11ene12710 0.0 102111
05:00+11ene22670 0.0 102312
08:00+15e23520 0.0 1025284
11:00+21ese45370 0.0 10231530
14:00+23e54310 0.0 10202288
17:00+21ene763812 0.0 10201193
20:00+14ne511680 0.0 1024362
21 april, wed
wed2123:00+13ene49795 0.0 1024296
02:00+11ene22945 0.0 102323
05:00+10ene22930 0.0 102313
08:00+14se11770 0.0 1025283
11:00+21ese23390 0.0 10221263
14:00+25sse44253 0.0 10182650
17:00+23se442830 0.0 1018839
20:00+15nne33610 0.0 102227
22 april, thu
thu2223:00+12nne22875 0.0 102218
02:00+12nne22834 0.0 102112
05:00+11wnw018446 0.0 102110
08:00+17nw1159100 0.0 1022183
11:00+23ssw123411 0.0 10201520
14:00+26s432456 0.0 10163076
17:00+24ese232896 0.0 1016530
20:00+18n23450 0.0 101813